GOKTURK 1A

Last updated on Tue Oct 21 2025 00:02:31 GMT+0000 (Coordinated Universal Time)

1 41875U 16073A 25293.69512959 .00000918 00000+0 18902-3 0 9999 2 41875 98.1442 186.7627 0001317 79.7315 280.4036 14.62839186473810
UTC large
Height (km)
Speed (km/s)
/
Latitude / Longitude
Inclination (degrees)
Orbital Period (minutes)
Azimuth
Elevation
Range (km)
Doppler Factor

Next 0 passes for location: London (51.5072 / 0.1276)

Sorry there are no passes over London.